Hourly Weather La Massana

Today, 12 August, Wednesday

Time Temperature Precipitation Wind Pressure Humidity
00:00 +14°C° 0 mm 1 mps 612 mmHg 64%
01:00 +14°C° 0 mm 2 mps 612 mmHg 65%
02:00 +14°C° 0 mm 2 mps 611 mmHg 66%
03:00 +13°C° 0 mm 2 mps 611 mmHg 67%
04:00 +14°C° 0 mm 2 mps 611 mmHg 63%
05:00 +14°C° 0 mm 2 mps 611 mmHg 59%
06:00 +14°C° 0 mm 1 mps 611 mmHg 60%
07:00 +16°C° 0.1 mm 2 mps 612 mmHg 56%
08:00 +17°C° 0.1 mm 3 mps 613 mmHg 52%
09:00 +18°C° 0.1 mm 3 mps 613 mmHg 48%
10:00 +18°C° 0.3 mm 3 mps 613 mmHg 52%
11:00 +19°C° 0.3 mm 3 mps 613 mmHg 56%
12:00 +20°C° 0 mm 2 mps 614 mmHg 58%
13:00 +19°C° 0.7 mm 2 mps 613 mmHg 59%
14:00 +19°C° 0.7 mm 2 mps 613 mmHg 61%
15:00 +19°C° 0.7 mm 2 mps 612 mmHg 62%
16:00 +18°C° 0.5 mm 2 mps 612 mmHg 67%
17:00 +17°C° 0.5 mm 2 mps 612 mmHg 72%
18:00 +16°C° 0.5 mm 1 mps 611 mmHg 77%
19:00 +15°C° 0.2 mm 1 mps 611 mmHg 79%
20:00 +13°C° 0.2 mm 1 mps 611 mmHg 81%
21:00 +12°C° 0.2 mm 1 mps 610 mmHg 83%
22:00 +12°C° 0 mm 1 mps 611 mmHg 82%
23:00 +12°C° 0 mm 1 mps 611 mmHg 81%

Tomorrow, 13 August, Thursday

Time Temperature Precipitation Wind Pressure Humidity
00:00 +12°C° 0 mm 1 mps 611 mmHg 79%
01:00 +12°C° 0 mm 1 mps 611 mmHg 79%
02:00 +12°C° 0 mm 1 mps 610 mmHg 79%
03:00 +11°C° 0 mm 1 mps 610 mmHg 79%
04:00 +12°C° 0 mm 1 mps 611 mmHg 80%
05:00 +12°C° 0 mm 1 mps 611 mmHg 81%
06:00 +12°C° 0 mm 1 mps 611 mmHg 82%
07:00 +14°C° 0 mm 1 mps 612 mmHg 72%
08:00 +16°C° 0 mm 1 mps 613 mmHg 61%
09:00 +18°C° 0 mm 2 mps 615 mmHg 51%
10:00 +19°C° 0 mm 2 mps 615 mmHg 48%
11:00 +20°C° 0 mm 2 mps 615 mmHg 46%
12:00 +21°C° 0 mm 3 mps 616 mmHg 44%
13:00 +20°C° 0.1 mm 3 mps 615 mmHg 47%
14:00 +20°C° 0.1 mm 2 mps 615 mmHg 50%
15:00 +19°C° 0.1 mm 2 mps 614 mmHg 53%
16:00 +18°C° 0.2 mm 2 mps 614 mmHg 59%
17:00 +18°C° 0.2 mm 1 mps 614 mmHg 65%
18:00 +16°C° 0.2 mm 1 mps 613 mmHg 71%
19:00 +15°C° 0 mm 1 mps 613 mmHg 75%
20:00 +13°C° 0 mm 1 mps 613 mmHg 79%
21:00 +12°C° 0 mm 1 mps 612 mmHg 84%
22:00 +12°C° 0 mm 1 mps 612 mmHg 85%
23:00 +11°C° 0 mm 1 mps 612 mmHg 86%

Day after tomorrow, 14 August, Friday

Time Temperature Precipitation Wind Pressure Humidity
00:00 +11°C° 0 mm 1 mps 612 mmHg 87%
01:00 +11°C° 0 mm 1 mps 612 mmHg 87%
02:00 +11°C° 0 mm 1 mps 612 mmHg 86%
03:00 +11°C° 0 mm 1 mps 612 mmHg 86%
04:00 +11°C° 0 mm 1 mps 612 mmHg 85%
05:00 +11°C° 0 mm 1 mps 612 mmHg 84%
06:00 +12°C° 0 mm 1 mps 613 mmHg 83%
07:00 +14°C° 0 mm 1 mps 614 mmHg 71%
08:00 +18°C° 0 mm 1 mps 615 mmHg 60%
09:00 +21°C° 0 mm 1 mps 616 mmHg 48%
10:00 +21°C° 0 mm 2 mps 616 mmHg 46%
11:00 +21°C° 0 mm 2 mps 616 mmHg 44%
12:00 +22°C° 0 mm 3 mps 616 mmHg 42%
13:00 +22°C° 0.2 mm 3 mps 615 mmHg 45%
14:00 +21°C° 0.2 mm 3 mps 615 mmHg 48%
15:00 +21°C° 0.2 mm 3 mps 614 mmHg 51%
16:00 +19°C° 0.3 mm 2 mps 614 mmHg 58%
17:00 +19°C° 0.3 mm 1 mps 613 mmHg 65%
18:00 +18°C° 0.3 mm 1 mps 613 mmHg 73%
19:00 +16°C° 0.1 mm 1 mps 612 mmHg 77%
20:00 +14°C° 0.1 mm 1 mps 612 mmHg 81%
21:00 +12°C° 0.1 mm 1 mps 611 mmHg 86%
22:00 +12°C° 0 mm 1 mps 611 mmHg 86%
23:00 +12°C° 0 mm 1 mps 611 mmHg 86%

15 August, Saturday

Time Temperature Precipitation Wind Pressure Humidity
00:00 +12°C° 0 mm 1 mps 611 mmHg 87%
01:00 +12°C° 0 mm 1 mps 611 mmHg 86%
02:00 +12°C° 0 mm 1 mps 611 mmHg 85%
03:00 +12°C° 0 mm 1 mps 610 mmHg 85%
04:00 +12°C° 0 mm 1 mps 610 mmHg 82%
05:00 +13°C° 0 mm 1 mps 611 mmHg 79%
06:00 +13°C° 0 mm 1 mps 611 mmHg 76%
07:00 +16°C° 0 mm 2 mps 612 mmHg 64%
08:00 +19°C° 0 mm 2 mps 613 mmHg 51%
09:00 +21°C° 0 mm 2 mps 614 mmHg 39%
10:00 +23°C° 0 mm 2 mps 614 mmHg 37%
11:00 +24°C° 0 mm 3 mps 614 mmHg 35%
12:00 +25°C° 0 mm 4 mps 614 mmHg 34%
13:00 +24°C° 0 mm 3 mps 614 mmHg 35%
14:00 +24°C° 0 mm 3 mps 614 mmHg 37%
15:00 +24°C° 0 mm 3 mps 613 mmHg 39%
16:00 +21°C° 0.3 mm 3 mps 612 mmHg 50%
17:00 +19°C° 0.3 mm 2 mps 611 mmHg 61%
18:00 +18°C° 0.3 mm 1 mps 610 mmHg 72%
19:00 +16°C° 0.1 mm 1 mps 610 mmHg 74%
20:00 +15°C° 0.1 mm 1 mps 610 mmHg 77%
21:00 +14°C° 0.1 mm 1 mps 610 mmHg 80%
22:00 +13°C° 0 mm 1 mps 610 mmHg 81%
23:00 +13°C° 0 mm 1 mps 610 mmHg 82%

16 August, Sunday

Time Temperature Precipitation Wind Pressure Humidity
00:00 +13°C° 0 mm 1 mps 610 mmHg 83%
01:00 +12°C° 0 mm 1 mps 610 mmHg 82%
02:00 +12°C° 0 mm 1 mps 610 mmHg 82%
03:00 +11°C° 0 mm 0 mps 610 mmHg 82%
04:00 +11°C° 0 mm 0 mps 610 mmHg 82%
05:00 +11°C° 0 mm 0 mps 610 mmHg 82%
06:00 +12°C° 0 mm 0 mps 610 mmHg 82%
07:00 +15°C° 0 mm 1 mps 611 mmHg 73%
08:00 +18°C° 0 mm 1 mps 612 mmHg 64%
09:00 +20°C° 0 mm 1 mps 613 mmHg 55%
10:00 +20°C° 0 mm 2 mps 614 mmHg 49%
11:00 +21°C° 0 mm 3 mps 614 mmHg 43%
12:00 +22°C° 0 mm 3 mps 614 mmHg 37%
13:00 +21°C° 0 mm 3 mps 614 mmHg 39%
14:00 +21°C° 0 mm 3 mps 613 mmHg 41%
15:00 +21°C° 0 mm 3 mps 613 mmHg 44%
16:00 +20°C° 0.1 mm 3 mps 612 mmHg 52%
17:00 +18°C° 0.1 mm 2 mps 612 mmHg 61%
18:00 +18°C° 0.1 mm 1 mps 611 mmHg 69%
19:00 +15°C° 0 mm 1 mps 611 mmHg 76%
20:00 +14°C° 0 mm 1 mps 611 mmHg 82%
21:00 +11°C° 0 mm 0 mps 610 mmHg 88%
22:00 +11°C° 0 mm 0 mps 610 mmHg 88%
23:00 +11°C° 0 mm 0 mps 610 mmHg 88%

17 August, Monday

Time Temperature Precipitation Wind Pressure Humidity
00:00 +11°C° 0 mm 0 mps 610 mmHg 88%
01:00 +11°C° 0 mm 0 mps 610 mmHg 88%
02:00 +11°C° 0 mm 0 mps 610 mmHg 87%
03:00 +11°C° 0 mm 0 mps 610 mmHg 86%
04:00 +11°C° 0 mm 0 mps 610 mmHg 87%
05:00 +11°C° 0 mm 0 mps 610 mmHg 88%
06:00 +11°C° 0 mm 0 mps 610 mmHg 88%
07:00 +14°C° 0 mm 1 mps 611 mmHg 78%
08:00 +16°C° 0 mm 1 mps 612 mmHg 68%
09:00 +18°C° 0 mm 2 mps 613 mmHg 59%
10:00 +19°C° 0 mm 2 mps 613 mmHg 54%
11:00 +20°C° 0 mm 2 mps 614 mmHg 50%
12:00 +21°C° 0 mm 3 mps 614 mmHg 45%
13:00 +20°C° 0 mm 3 mps 614 mmHg 47%
14:00 +20°C° 0 mm 3 mps 613 mmHg 49%
15:00 +20°C° 0 mm 3 mps 613 mmHg 51%
16:00 +18°C° 0.2 mm 2 mps 612 mmHg 59%
17:00 +17°C° 0.2 mm 2 mps 612 mmHg 67%
18:00 +15°C° 0.2 mm 1 mps 611 mmHg 75%
19:00 +14°C° 0.1 mm 1 mps 611 mmHg 80%
20:00 +13°C° 0.1 mm 1 mps 611 mmHg 85%
21:00 +12°C° 0.1 mm 1 mps 611 mmHg 91%
22:00 +12°C° 0 mm 1 mps 611 mmHg 89%
23:00 +11°C° 0 mm 1 mps 611 mmHg 88%
Show more